Hourly Weather Avdeevo

Today, 16 April, Friday

Time Temperature Precipitation Wind Pressure Humidity
00:00 +5°C° 0 mm 5 mps 750 mmHg 91%
01:00 +5°C° 0 mm 5 mps 750 mmHg 91%
02:00 +5°C° 0 mm 5 mps 750 mmHg 91%
03:00 +5°C° 0 mm 5 mps 750 mmHg 91%
04:00 +5°C° 0 mm 5 mps 750 mmHg 90%
05:00 +3°C° 0 mm 5 mps 750 mmHg 90%
06:00 +5°C° 0.2 mm 5 mps 750 mmHg 89%
07:00 +5°C° 0.2 mm 5 mps 750 mmHg 89%
08:00 +4°C° 0.2 mm 6 mps 750 mmHg 88%
09:00 +5°C° 0 mm 6 mps 750 mmHg 87%
10:00 +7°C° 0 mm 5 mps 751 mmHg 87%
11:00 +7°C° 0 mm 5 mps 751 mmHg 86%
12:00 +8°C° 0 mm 5 mps 751 mmHg 83%
13:00 +9°C° 0 mm 5 mps 751 mmHg 80%
14:00 +10°C° 0 mm 6 mps 751 mmHg 78%
15:00 +10°C° 0 mm 5 mps 751 mmHg 79%
16:00 +10°C° 0 mm 5 mps 751 mmHg 80%
17:00 +10°C° 0 mm 5 mps 751 mmHg 81%
18:00 +9°C° 0.2 mm 5 mps 751 mmHg 83%
19:00 +9°C° 0.2 mm 5 mps 752 mmHg 86%
20:00 +9°C° 0.2 mm 5 mps 752 mmHg 88%
21:00 +8°C° 1 mm 5 mps 752 mmHg 88%
22:00 +8°C° 1 mm 5 mps 752 mmHg 88%
23:00 +8°C° 1 mm 5 mps 752 mmHg 89%

Tomorrow, 17 April, Saturday

Time Temperature Precipitation Wind Pressure Humidity
00:00 +8°C° 0.3 mm 4 mps 752 mmHg 89%
01:00 +8°C° 0.3 mm 4 mps 752 mmHg 90%
02:00 +8°C° 0.3 mm 4 mps 752 mmHg 90%
03:00 +7°C° 0 mm 4 mps 752 mmHg 91%
04:00 +7°C° 0 mm 4 mps 752 mmHg 92%
05:00 +7°C° 0 mm 4 mps 752 mmHg 93%
06:00 +8°C° 0 mm 4 mps 753 mmHg 91%
07:00 +8°C° 0 mm 4 mps 753 mmHg 89%
08:00 +10°C° 0 mm 4 mps 753 mmHg 87%
09:00 +10°C° 0 mm 4 mps 754 mmHg 85%
10:00 +10°C° 0 mm 4 mps 754 mmHg 83%
11:00 +11°C° 0 mm 4 mps 754 mmHg 82%
12:00 +11°C° 0.1 mm 4 mps 754 mmHg 76%
13:00 +12°C° 0.1 mm 4 mps 754 mmHg 71%
14:00 +13°C° 0.1 mm 4 mps 754 mmHg 66%
15:00 +13°C° 0 mm 4 mps 754 mmHg 67%
16:00 +12°C° 0 mm 4 mps 754 mmHg 69%
17:00 +12°C° 0 mm 4 mps 754 mmHg 71%
18:00 +12°C° 0.1 mm 4 mps 754 mmHg 73%
19:00 +11°C° 0.1 mm 4 mps 754 mmHg 76%
20:00 +11°C° 0.1 mm 3 mps 754 mmHg 79%
21:00 +10°C° 0 mm 4 mps 754 mmHg 80%
22:00 +10°C° 0 mm 4 mps 754 mmHg 81%
23:00 +10°C° 0 mm 4 mps 754 mmHg 82%

Day after tomorrow, 18 April, Sunday

Time Temperature Precipitation Wind Pressure Humidity
00:00 +8°C° 0 mm 4 mps 754 mmHg 84%
01:00 +7°C° 0 mm 4 mps 754 mmHg 85%
02:00 +7°C° 0 mm 4 mps 754 mmHg 86%
03:00 +6°C° 0 mm 4 mps 754 mmHg 86%
04:00 +5°C° 0 mm 4 mps 754 mmHg 85%
05:00 +5°C° 0 mm 3 mps 754 mmHg 84%
06:00 +6°C° 0 mm 4 mps 754 mmHg 79%
07:00 +6°C° 0 mm 4 mps 754 mmHg 73%
08:00 +7°C° 0 mm 4 mps 754 mmHg 67%
09:00 +8°C° 0 mm 4 mps 754 mmHg 64%
10:00 +11°C° 0 mm 4 mps 754 mmHg 61%
11:00 +12°C° 0 mm 4 mps 754 mmHg 59%
12:00 +12°C° 0 mm 4 mps 754 mmHg 60%
13:00 +11°C° 0 mm 4 mps 755 mmHg 62%
14:00 +11°C° 0 mm 4 mps 755 mmHg 63%
15:00 +11°C° 0 mm 4 mps 755 mmHg 64%
16:00 +11°C° 0 mm 4 mps 755 mmHg 65%
17:00 +11°C° 0 mm 4 mps 755 mmHg 65%
18:00 +10°C° 0 mm 3 mps 755 mmHg 69%
19:00 +9°C° 0 mm 2 mps 755 mmHg 73%
20:00 +9°C° 0 mm 1 mps 755 mmHg 76%
21:00 +8°C° 0 mm 2 mps 755 mmHg 78%
22:00 +7°C° 0 mm 2 mps 755 mmHg 81%
23:00 +7°C° 0 mm 2 mps 755 mmHg 83%

19 April, Monday

Time Temperature Precipitation Wind Pressure Humidity
00:00 +6°C° 0 mm 2 mps 756 mmHg 85%
01:00 +5°C° 0 mm 2 mps 756 mmHg 87%
02:00 +5°C° 0 mm 2 mps 756 mmHg 89%
03:00 +4°C° 0 mm 2 mps 755 mmHg 90%
04:00 +4°C° 0 mm 2 mps 755 mmHg 91%
05:00 +4°C° 0 mm 2 mps 755 mmHg 92%
06:00 +4°C° 0 mm 3 mps 755 mmHg 87%
07:00 +5°C° 0 mm 4 mps 755 mmHg 81%
08:00 +6°C° 0 mm 4 mps 755 mmHg 75%
09:00 +7°C° 0 mm 4 mps 755 mmHg 74%
10:00 +7°C° 0 mm 4 mps 755 mmHg 72%
11:00 +7°C° 0 mm 4 mps 755 mmHg 71%
12:00 +7°C° 0.1 mm 4 mps 755 mmHg 70%
13:00 +8°C° 0.1 mm 4 mps 755 mmHg 69%
14:00 +8°C° 0.1 mm 4 mps 754 mmHg 68%
15:00 +8°C° 0.1 mm 4 mps 754 mmHg 69%
16:00 +8°C° 0.1 mm 4 mps 754 mmHg 70%
17:00 +8°C° 0.1 mm 4 mps 753 mmHg 70%
18:00 +7°C° 0 mm 4 mps 753 mmHg 75%
19:00 +6°C° 0 mm 4 mps 753 mmHg 80%
20:00 +5°C° 0 mm 4 mps 753 mmHg 85%
21:00 +5°C° 0 mm 4 mps 753 mmHg 86%
22:00 +5°C° 0 mm 4 mps 752 mmHg 86%
23:00 +5°C° 0 mm 4 mps 752 mmHg 87%

20 April, Tuesday

Time Temperature Precipitation Wind Pressure Humidity
00:00 +5°C° 0 mm 4 mps 752 mmHg 87%
01:00 +5°C° 0 mm 4 mps 751 mmHg 87%
02:00 +5°C° 0 mm 4 mps 751 mmHg 88%
03:00 +5°C° 0 mm 4 mps 750 mmHg 89%
04:00 +5°C° 0 mm 4 mps 750 mmHg 90%
05:00 +5°C° 0 mm 4 mps 749 mmHg 91%
06:00 +5°C° 0.3 mm 4 mps 749 mmHg 91%
07:00 +5°C° 0.3 mm 5 mps 749 mmHg 90%
08:00 +5°C° 0.3 mm 5 mps 748 mmHg 89%
09:00 +5°C° 0.8 mm 5 mps 748 mmHg 89%
10:00 +5°C° 0.8 mm 5 mps 748 mmHg 89%
11:00 +5°C° 0.8 mm 5 mps 747 mmHg 89%
12:00 +6°C° 0 mm 5 mps 747 mmHg 83%
13:00 +7°C° 0 mm 5 mps 746 mmHg 77%
14:00 +8°C° 0 mm 5 mps 746 mmHg 72%
15:00 +8°C° 0 mm 6 mps 745 mmHg 71%
16:00 +8°C° 0 mm 6 mps 744 mmHg 71%
17:00 +8°C° 0 mm 6 mps 743 mmHg 70%
18:00 +7°C° 0.2 mm 6 mps 743 mmHg 74%
19:00 +5°C° 0.2 mm 6 mps 742 mmHg 78%
20:00 +4°C° 0.2 mm 6 mps 742 mmHg 81%
21:00 +4°C° 0.9 mm 6 mps 741 mmHg 86%
22:00 +3°C° 0.9 mm 6 mps 740 mmHg 90%
23:00 +3°C° 0.9 mm 6 mps 740 mmHg 94%

21 April, Wednesday

Time Temperature Precipitation Wind Pressure Humidity
00:00 +2°C° 1.1 mm 5 mps 739 mmHg 95%
01:00 +2°C° 1.1 mm 5 mps 739 mmHg 96%
02:00 +1°C° 1.1 mm 4 mps 739 mmHg 96%
03:00 +1°C° 0.6 mm 4 mps 738 mmHg 96%
04:00 +1°C° 0.6 mm 4 mps 738 mmHg 96%
05:00 +1°C° 0.6 mm 4 mps 738 mmHg 96%
06:00 +1°C° 0.5 mm 4 mps 738 mmHg 96%
07:00 +1°C° 0.5 mm 4 mps 738 mmHg 96%
08:00 +1°C° 0.5 mm 5 mps 737 mmHg 96%
09:00 +1°C° 0.3 mm 5 mps 738 mmHg 96%
10:00 +1°C° 0.3 mm 5 mps 738 mmHg 96%
11:00 +1°C° 0.3 mm 5 mps 738 mmHg 96%
12:00 +1°C° 0.3 mm 5 mps 738 mmHg 96%
13:00 +2°C° 0.3 mm 5 mps 739 mmHg 96%
14:00 +2°C° 0.3 mm 5 mps 739 mmHg 96%
15:00 +2°C° 0.2 mm 5 mps 739 mmHg 96%
16:00 +2°C° 0.2 mm 5 mps 740 mmHg 96%
17:00 +3°C° 0.2 mm 4 mps 740 mmHg 96%
18:00 +3°C° 0.1 mm 4 mps 741 mmHg 96%
19:00 +3°C° 0.1 mm 4 mps 741 mmHg 96%
20:00 +3°C° 0.1 mm 3 mps 742 mmHg 95%
21:00 +3°C° 0 mm 3 mps 742 mmHg 94%
22:00 +3°C° 0 mm 3 mps 743 mmHg 93%
23:00 +3°C° 0 mm 3 mps 743 mmHg 91%
Show more